Torna al catalogo

SL-8 R/B

AttivoPO
NORAD 10142·ROCKET BODY·🇷🇺 Russia

Lanciato Jul 13, 1977 da Plesetsk Cosmodrome

Loading…

Prossimi Passaggi (prossime 24 ore)

TLE

AggiornatoSource: Space-Track

Epoca: Sep 14, 2026, 07:10 UTC

1 10142U 77064B   26257.29906405  .00000097  00000-0  79829-4 0  9994
2 10142  82.9671  30.4022 0040769 318.4490  60.9538 13.78923893472994

Traccia SL-8 R/B in tempo reale con AllMySat

Download on the App Store